Content
SEND FEEDBACK

Daily
Averages
Monthly
Summary
United States of America

AGANA, GUAM


Home > North America > United States > Guam
Elevation: 246 feet     Latitude: 13 29N     Longitude: 144 48E

WEATHER
 
SELECT A DAY
Number of Records: 214,100;   Date Range: 1/1/95 - 10/29/14
 
SHARE

PRINT THIS DATA

[ ← Previous Day ]
WEATHER ALMANAC - JANUARY 22, 2013
[ Next Day → ]
[ °C ]   °F
Weather ElementAverageHighLow
Temperature79.8 °F84.2 °F (1:01 pm)75 °F (3:54 am)
Dewpoint71.9 °F73.9 °F (8:54 am)70 °F (4:54 pm)
Humidity77.1 %90 % (3:54 am)66 % (1:01 pm)
Barometer29.91 in29.98 in (9:35 am)29.85 in (3:54 pm)
Wind Speed18.5 mph26.5 mph (2:39 pm)
Wind Gust32.2 mph (2:54 pm)
Weather ElementAverage
Visibility10 mi
Wind DirectionENE (53.9 °)

Weather ElementTotal
Precipitation---
Cooling Degree Days14.6 (Base 65)
Growing Degree Days29.6 (Base 50)
Averaged from 31 records on January 22, 2013
WEATHER CONDITIONS BREAKOUT
WIND DIRECTION BREAKOUT
WEATHER BY HOUR - JANUARY 22, 2013
[ °C ]   °F
Local TimeTemperatureDewpointHumidityBarometerVisibilityWind DirectionWind SpeedGust SpeedPrecipitationEventsConditions
1:54 AM75.9 °F72.0 °F87 %29.91 in10.0 miNE (40°)13.8 mphOvercast
2:54 AM75.9 °F72.0 °F87 %29.89 in10.0 miNE (50°)19.6 mph27.6 mph0.00 inMostly Cloudy
3:54 AM75.0 °F72.0 °F90 %29.89 in10.0 miNE (50°)11.5 mph0.00 inMostly Cloudy
4:54 AM75.9 °F72.0 °F87 %29.89 in10.0 miNE (50°)15.0 mph0.00 inMostly Cloudy
5:54 AM75.9 °F72.0 °F87 %29.90 in10.0 miNE (50°)15.0 mph0.00 inScattered Clouds
6:54 AM75.9 °F72.0 °F87 %29.92 in10.0 miNE (50°)16.1 mphClear
7:54 AM75.9 °F72.0 °F87 %29.94 in10.0 miENE (60°)20.7 mph0.00 inMostly Cloudy
8:54 AM79.0 °F73.9 °F84 %29.96 in10.0 miNE (50°)18.4 mph24.2 mphScattered Clouds
9:35 AM80.6 °F73.4 °F79 %29.98 in10.0 miNE (50°)17.3 mphMostly Cloudy
9:54 AM80.1 °F72.0 °F76 %29.96 in10.0 miENE (60°)18.4 mph27.6 mphMostly Cloudy
10:01 AM80.6 °F73.4 °F79 %29.98 in10.0 miNE (50°)17.3 mph26.5 mphMostly Cloudy
10:44 AM80.6 °F73.4 °F79 %29.97 in10.0 miNE (40°)23.0 mph27.6 mph0.00 inMostly Cloudy
10:54 AM80.1 °F73.9 °F81 %29.95 in9.0 miNE (50°)20.7 mph0.00 inRainLight Rain
11:06 AM82.4 °F71.6 °F70 %29.96 in10.0 miNE (50°)18.4 mph25.3 mph0.00 inOvercast
11:54 AM82.9 °F73.0 °F72 %29.93 in10.0 miNE (50°)25.3 mph31.1 mph0.00 inMostly Cloudy
12:40 PM82.4 °F73.4 °F74 %29.93 in10.0 miNE (50°)20.7 mph0.00 inMostly Cloudy
12:54 PM82.9 °F72.0 °F69 %29.90 in10.0 miNE (50°)23.0 mph31.1 mph0.00 inScattered Clouds
1:01 PM84.2 °F71.6 °F66 %29.92 in10.0 miNE (50°)21.9 mph31.1 mphMostly Cloudy
1:29 PM82.4 °F71.6 °F70 %29.91 in10.0 miENE (60°)21.9 mph28.8 mphMostly Cloudy
1:54 PM82.9 °F72.0 °F69 %29.87 in10.0 miENE (60°)19.6 mph26.5 mphMostly Cloudy
2:39 PM82.4 °F71.6 °F70 %29.88 in10.0 miENE (60°)26.5 mph31.1 mphMostly Cloudy
2:54 PM82.9 °F71.1 °F67 %29.86 in10.0 miNE (50°)21.9 mph32.2 mphScattered Clouds
3:54 PM82.9 °F71.1 °F67 %29.85 in10.0 miENE (60°)24.2 mphScattered Clouds
4:54 PM81.0 °F70.0 °F69 %29.86 in10.0 miNE (50°)20.7 mph32.2 mphScattered Clouds
5:54 PM80.1 °F71.1 °F74 %29.86 in10.0 miNE (50°)18.4 mph25.3 mphScattered Clouds
6:54 PM78.1 °F72.0 °F81 %29.87 in10.0 miENE (60°)15.0 mph0.00 inPartly Cloudy
7:54 PM79.0 °F71.1 °F77 %29.88 in10.0 miENE (70°)16.1 mphMostly Cloudy
8:54 PM78.1 °F71.1 °F79 %29.89 in10.0 miENE (60°)15.0 mphMostly Cloudy
9:54 PM79.0 °F70.0 °F74 %29.89 in10.0 miENE (60°)11.5 mphMostly Cloudy
10:54 PM79.0 °F70.0 °F74 %29.89 in10.0 miENE (60°)15.0 mphMostly Cloudy
11:54 PM79.0 °F71.1 °F77 %29.89 in10.0 miENE (70°)12.7 mph20.7 mphMostly Cloudy
Hourly data recorded from PGUM, located miles away from Agana, Guam







STORIES FROM OUR PARTNERS